This is the latest recevied weather packets stored in our database for station/object AB4KN. If no packets are shown the sender has not sent any weather packets the latest 10 day(s).
| Time | Temp. | Humidity | Pressure | Rain* | Wind** | Luminosity | Snow |
|---|---|---|---|---|---|---|---|
| 1777673322 | 17.78° C | 67% | 1016.8 hPa | 0 mm | - | 37 W/m² | - |
| 1777673019 | 17.78° C | 63% | 1017 hPa | 0 mm | - | 44 W/m² | - |
| 1777672715 | 17.78° C | 69% | 1017 hPa | 0 mm | - | 46 W/m² | - |
| 1777672412 | 17.78° C | 64% | 1017.2 hPa | 0 mm | - | 47 W/m² | - |
| 1777672107 | 17.78° C | 66% | 1017.3 hPa | 0 mm | - | 49 W/m² | - |
| 1777671803 | 17.78° C | 65% | 1017.2 hPa | 0 mm | - | 48 W/m² | - |
| 1777671499 | 17.78° C | 69% | 1017.6 hPa | 0 mm | - | 45 W/m² | - |
| 1777671195 | 17.78° C | 68% | 1017.7 hPa | 0 mm | - | 46 W/m² | - |
| 1777670891 | 17.78° C | 67% | 1017.8 hPa | 0 mm | - | 37 W/m² | - |
| 1777670588 | 17.78° C | 66% | 1017.9 hPa | 0 mm | - | 33 W/m² | - |
| 1777670285 | 17.78° C | 65% | 1017.8 hPa | 0 mm | - | 55 W/m² | - |
| 1777669982 | 17.78° C | 62% | 1017.6 hPa | 0 mm | - | 66 W/m² | - |
| 1777669679 | 17.78° C | 64% | 1017.6 hPa | 0 mm | - | 72 W/m² | - |
| 1777669376 | 17.78° C | 66% | 1017.6 hPa | 0 mm | - | 73 W/m² | - |
| 1777669072 | 17.78° C | 66% | 1017.7 hPa | 0 mm | - | 62 W/m² | - |
| 1777668769 | 17.78° C | 66% | 1017.9 hPa | 0 mm | - | 54 W/m² | - |
| 1777668466 | 17.22° C | 68% | 1017.9 hPa | 0 mm | - | 58 W/m² | - |
| 1777668163 | 17.22° C | 68% | 1018.3 hPa | 0 mm | - | 68 W/m² | - |
| 1777667859 | 17.22° C | 70% | 1018.4 hPa | 0 mm | - | 65 W/m² | - |
| 1777667556 | 17.22° C | 69% | 1018.5 hPa | 0 mm | - | 55 W/m² | - |
| 1777667253 | 16.67° C | 70% | 1018.4 hPa | 0 mm | - | 55 W/m² | - |
| 1777666950 | 16.67° C | 70% | 1018.9 hPa | 0 mm | - | 44 W/m² | - |
| 1777666647 | 16.67° C | 71% | 1018.9 hPa | 0 mm | - | 39 W/m² | - |
| 1777666344 | 16.67° C | 71% | 1018.9 hPa | 0 mm | - | 37 W/m² | - |
| 1777666041 | 16.67° C | 71% | 1018.8 hPa | 0 mm | - | 31 W/m² | - |
* Rain latest hour (hover to see other rain measurements)
** Current wind speed in m/s (hover to see current wind gust speed)